[[{"header":{"parameterUnit":"m.s-1","parameterCategory":1,"la1":30.2991,"la2":30.254,"lo1":-89.0895,"lo2":-89.0444,"dy":0.0017,"dx":0.0017,"nx":28,"ny":28,"refTime":"2025-01-26T09:00:00:Z","depth":0,"parameterNumber":2,"parameterNumberName":"U-component_of_WINDS"},"data":[0,0,0,0,0,0,0,0,0,0,0,0,0,0,0,0,0,0,0,0,0,0,0,0,0,0,0,0,0,0,0,0,0,0,0,0,0,0,0,0,0,0,0,0,0,0,0,0,0,0,0,0,0,0,0,0,0,0,-2.5641,-2.5642,0,-2.5719,-2.572,-2.5721,-2.5731,-2.573,-2.5729,-2.5728,-2.5809,-2.5812,-2.5814,0,0,0,0,0,0,0,0,0,0,0,0,0,-2.5502,-2.5504,-2.5641,-2.5642,-2.5643,-2.5719,-2.572,-2.5721,-2.5731,-2.573,-2.5729,-2.5728,-2.5808,-2.5811,-2.5815,0,0,0,0,0,0,0,0,0,0,0,0,0,-2.5569,-2.5505,-2.5641,-2.5657,-2.5659,-2.5719,-2.572,-2.5721,-2.5731,-2.573,-2.5729,-2.5728,-2.5807,-2.5811,-2.5815,-2.5864,0,0,-2.5828,-2.583,0,0,0,0,0,0,0,0,-2.5565,-2.5574,-2.5654,-2.5656,-2.5659,-2.5714,-2.57,-2.5769,-2.5731,-2.5704,-2.5728,-2.5727,-2.5778,-2.5785,-2.5802,-2.5868,-2.5871,-2.5828,-2.5831,-2.5833,-2.5834,0,0,0,0,0,0,0,-2.5561,-2.5571,-2.5672,-2.5655,-2.5658,-2.5661,-2.5669,-2.5713,-2.5746,-2.5706,-2.5707,-2.5716,-2.5779,-2.5798,-2.5804,-2.5872,-2.5828,-2.5832,-2.5835,-2.5836,-2.5983,-2.5984,0,0,0,0,0,0,-2.5553,-2.5567,-2.5669,-2.5674,-2.5608,-2.5664,-2.5673,-2.5697,-2.5746,-2.5752,-2.5717,-2.5716,-2.5791,-2.5799,-2.5807,-2.5867,-2.5833,-2.5837,-2.5839,-2.5981,-2.5983,-2.5984,0,0,0,0,0,0,-2.555,-2.5562,-2.5666,-2.5621,-2.5634,-2.5668,-2.5694,-2.5699,-2.5718,-2.5754,-2.576,-2.5729,-2.579,-2.5801,-2.585,-2.587,-2.5839,-2.5843,-2.598,-2.5982,-2.5984,-2.5987,0,0,0,0,0,0,-2.5546,-2.5561,-2.5579,-2.5621,-2.5637,-2.5708,-2.5696,-2.5702,-2.5725,-2.5725,-2.5768,-2.5774,-2.579,-2.5843,-2.5854,-2.5875,-2.5846,-2.5978,-2.5981,-2.5983,-2.5985,-2.5989,-2.5992,0,0,0,0,0,-2.5541,-2.5577,-2.558,-2.5593,-2.5661,-2.5709,-2.5718,-2.5736,-2.5727,-2.5746,-2.5769,-2.5772,-2.5866,-2.5848,-2.586,-2.5883,-2.5977,-2.598,-2.5983,-2.5984,-2.5988,-2.5992,0,0,0,0,0,0,-2.5537,-2.5583,-2.5587,-2.5638,-2.5669,-2.571,-2.5735,-2.574,-2.5775,-2.5773,-2.5795,-2.5805,-2.5852,-2.5873,-2.5852,-2.5933,-2.5921,-2.5926,-2.5917,-2.5922,-2.5925,-2.5918,-2.585,0,0,0,0,0,-2.5542,-2.5577,-2.5616,-2.5657,-2.5673,-2.5701,-2.5723,-2.5734,-2.5768,-2.5781,-2.5808,-2.584,-2.5877,-2.5901,-2.5937,-2.5989,-2.5998,-2.6011,-2.6014,-2.6017,-2.6021,-2.605,-2.6055,-2.5994,-2.5994,-2.5994,0,0,-2.5553,-2.5583,-2.5603,-2.5657,-2.5683,-2.5718,-2.5712,-2.575,-2.5777,-2.5787,-2.5834,-2.5856,-2.5893,-2.5944,-2.5968,-2.5962,-2.604,-2.6021,-2.6022,-2.6025,-2.6053,-2.6059,-2.6064,-2.5996,-2.5996,-2.5996,0,0,-2.559,-2.5617,-2.5654,-2.568,-2.5719,-2.5737,-2.5746,-2.5787,-2.5801,-2.5849,-2.5858,-2.589,-2.5953,-2.598,-2.6002,-2.6051,-2.6054,-2.6062,-2.6079,-2.6107,-2.6111,-2.6116,-2.6132,-2.6138,-2.6066,-2.6066,-2.6066,0,-2.5599,-2.5652,-2.5672,-2.571,-2.5733,-2.5744,-2.5782,-2.5807,-2.5855,-2.5871,-2.5865,-2.5945,-2.5971,-2.6028,-2.604,-2.6058,-2.6068,-2.6056,-2.6109,-2.6114,-2.6118,-2.6134,-2.614,-2.6067,-2.6067,-2.6067,-2.6067,0,-2.5661,-2.5698,-2.5723,-2.577,-2.5796,-2.5834,-2.586,-2.5884,-2.5894,-2.5914,-2.5963,-2.5995,-2.6038,-2.6053,-2.6063,-2.6111,-2.6107,-2.6105,-2.6092,-2.6124,-2.6139,-2.6146,-2.6068,-2.6067,-2.6067,-2.6067,0,0,-2.5696,-2.5754,-2.5762,-2.5784,-2.5828,-2.5857,-2.5896,-2.5937,-2.5958,-2.5992,-2.6024,-2.6078,-2.6077,-2.6101,-2.6115,-2.614,-2.6175,-2.6135,-2.6136,-2.614,-2.623,-2.623,-2.6237,-2.6179,-2.618,-2.6181,-2.6226,0,-2.5738,-2.5806,-2.5825,-2.5882,-2.5917,-2.5929,-2.5962,-2.5994,-2.6013,-2.6046,-2.6068,-2.6106,-2.6101,-2.6116,-2.6141,-2.6166,-2.6193,-2.6163,-2.6209,-2.621,-2.6197,-2.6245,-2.6245,-2.6286,-2.6233,-2.6234,-2.6235,0,-2.5795,-2.5829,-2.589,-2.593,-2.5945,-2.5975,-2.6015,-2.6046,-2.6082,-2.6094,-2.6123,-2.6134,-2.6175,-2.6162,-2.6219,-2.6198,-2.6218,-2.6233,-2.6235,-2.6239,-2.6223,-2.6248,-2.6299,-2.6305,-2.6244,-2.6244,-2.6243,0,-2.5813,-2.5875,-2.5919,-2.5937,-2.5985,-2.6006,-2.6027,-2.6062,-2.6085,-2.6121,-2.6136,-2.6176,-2.6198,-2.6228,-2.625,-2.6239,-2.6305,-2.6294,-2.6317,-2.6316,-2.6328,-2.6327,-2.6382,-2.6344,-2.6344,-2.6344,-2.6344,0,-2.5856,-2.5893,-2.5928,-2.5955,-2.5996,-2.6019,-2.6059,-2.6081,-2.6112,-2.6144,-2.6158,-2.6187,-2.6215,-2.6249,-2.6267,-2.6311,-2.6321,-2.6332,-2.6336,-2.633,-2.6328,-2.6342,-2.6339,-2.6346,-2.6345,-2.6345,-2.6345,0,-2.5883,-2.5908,-2.5957,-2.5998,-2.601,-2.6038,-2.6074,-2.6101,-2.6122,-2.6162,-2.6173,-2.6206,-2.6246,-2.6272,-2.6323,-2.6336,-2.6383,-2.6387,-2.6371,-2.6372,-2.6393,-2.639,-2.6457,-2.6467,-2.6424,-2.6424,-2.6425,0,-2.5908,-2.5936,-2.5981,-2.6003,-2.6024,-2.606,-2.6084,-2.6108,-2.6133,-2.6176,-2.6198,-2.6239,-2.6273,-2.6337,-2.6366,-2.6406,-2.641,-2.6431,-2.6415,-2.6408,-2.6408,-2.6406,-2.6408,-2.6432,-2.6433,-2.6433,-2.6433,0,-2.5949,-2.596,-2.5995,-2.6034,-2.6062,-2.6094,-2.6126,-2.6144,-2.6173,-2.6201,-2.6242,-2.6269,-2.6321,-2.6362,-2.6404,-2.6427,-2.6435,-2.6438,-2.6445,-2.6438,-2.6427,-2.6432,-2.6376,-2.6436,-2.6436,-2.6435,-2.6435,-2.6435,-2.5975,-2.6,-2.6036,-2.6074,-2.61,-2.613,-2.6157,-2.6182,-2.6217,-2.6261,-2.6273,-2.6316,-2.6352,-2.641,-2.6433,-2.6468,-2.6465,-2.6475,-2.6478,-2.6479,-2.6479,-2.6423,-2.6476,-2.6476,-2.6476,-2.6476,-2.6476,0,-2.6016,-2.604,-2.6074,-2.6118,-2.6148,-2.6154,-2.619,-2.6215,-2.6252,-2.6285,-2.6318,-2.6366,-2.6406,-2.6438,-2.6479,-2.65,-2.6505,-2.651,-2.6508,-2.6513,-2.648,-2.6469,-2.6506,-2.6506,-2.6506,-2.6506,-2.6506,-2.6506,-2.6041,-2.6084,-2.6099,-2.6156,-2.618,-2.6222,-2.6242,-2.6269,-2.6296,-2.6348,-2.6381,-2.6402,-2.6434,-2.6478,-2.6515,-2.6524,-2.6538,-2.6542,-2.6551,-2.6519,-2.6515,-2.6512,-2.6502,-2.6545,-2.6545,-2.6581,-2.6581,-2.6582]},{"header":{"parameterUnit":"m.s-1","parameterCategory":1,"la1":30.2991,"la2":30.254,"lo1":-89.0895,"lo2":-89.0444,"dy":0.0017,"dx":0.0017,"nx":28,"ny":28,"refTime":"2025-01-26T09:00:00:Z","depth":0,"parameterNumber":3,"parameterNumberName":"V-component_of_WINDS"},"data":[0,0,0,0,0,0,0,0,0,0,0,0,0,0,0,0,0,0,0,0,0,0,0,0,0,0,0,0,0,0,0,0,0,0,0,0,0,0,0,0,0,0,0,0,0,0,0,0,0,0,0,0,0,0,0,0,0,0,2.9656,2.9657,0,2.9708,2.9709,2.9709,2.9703,2.9702,2.9702,2.9701,2.9754,2.9756,2.9758,0,0,0,0,0,0,0,0,0,0,0,0,0,2.9552,2.9554,2.9656,2.9657,2.9657,2.9708,2.9709,2.9709,2.9703,2.9702,2.9701,2.97,2.9753,2.9755,2.9758,0,0,0,0,0,0,0,0,0,0,0,0,0,2.96,2.9555,2.9656,2.9661,2.9661,2.9708,2.9709,2.9709,2.9704,2.9702,2.9701,2.97,2.9752,2.9755,2.9758,2.9803,0,0,2.9768,2.977,0,0,0,0,0,0,0,0,2.9597,2.9604,2.9659,2.966,2.9661,2.9698,2.9691,2.9741,2.9704,2.9688,2.9701,2.9699,2.9736,2.9741,2.9753,2.9806,2.9808,2.9769,2.9771,2.9772,2.9773,0,0,0,0,0,0,0,2.9594,2.9602,2.9677,2.966,2.9661,2.966,2.9665,2.9701,2.9718,2.9689,2.9689,2.9695,2.9736,2.975,2.9754,2.9809,2.9769,2.9772,2.9774,2.9775,2.9903,2.9904,0,0,0,0,0,0,2.959,2.9599,2.9675,2.9678,2.9626,2.9663,2.9669,2.9687,2.9718,2.9721,2.9696,2.9694,2.9745,2.975,2.9756,2.9812,2.9772,2.9775,2.9777,2.9902,2.9903,2.9905,0,0,0,0,0,0,2.9587,2.9596,2.9673,2.9638,2.9648,2.9666,2.9687,2.9689,2.9703,2.9723,2.9726,2.9706,2.9744,2.9751,2.9792,2.9814,2.9777,2.978,2.99,2.9902,2.9904,2.9924,0,0,0,0,0,0,2.9584,2.9596,2.9613,2.9639,2.965,2.9708,2.9688,2.9691,2.9708,2.9707,2.9734,2.9737,2.9744,2.9787,2.9795,2.9818,2.9782,2.9898,2.9901,2.9903,2.9922,2.9927,2.9931,0,0,0,0,0,2.9581,2.9616,2.9614,2.9623,2.9672,2.9709,2.9716,2.9723,2.971,2.9728,2.9741,2.9736,2.981,2.9791,2.9801,2.9824,2.9897,2.99,2.9903,2.992,2.9926,2.9931,0,0,0,0,0,0,2.9592,2.962,2.9617,2.9662,2.9684,2.9708,2.9731,2.9729,2.9754,2.9752,2.9759,2.9766,2.9807,2.9819,2.9798,2.987,2.9852,2.9857,2.9861,2.9867,2.9872,2.9869,2.9785,0,0,0,0,0,2.96,2.9628,2.965,2.9688,2.9699,2.9713,2.9729,2.9733,2.9755,2.9764,2.9781,2.9802,2.9831,2.9849,2.9876,2.9923,2.9929,2.9944,2.9948,2.9952,2.9957,2.9984,2.9992,2.9916,2.9916,2.9916,0,0,2.9616,2.9635,2.9652,2.9691,2.9708,2.9737,2.9721,2.9752,2.9774,2.9769,2.9809,2.9822,2.9847,2.9891,2.9911,2.9903,2.9979,2.9956,2.9959,2.9962,2.9988,2.9996,3.0002,2.9918,2.9917,2.9917,0,0,2.9662,2.9678,2.9712,2.9729,2.9755,2.9764,2.9772,2.9797,2.9806,2.9846,2.9843,2.9869,2.9917,2.9936,2.9951,3.0004,3.0001,3.0012,3.0038,3.0064,3.007,3.0075,3.0096,3.0103,3.0017,3.0017,3.0017,0,2.9679,2.9723,2.9729,2.9761,2.9779,2.9776,2.9811,2.9827,2.986,2.9873,2.9862,2.9923,2.994,2.9989,3.0002,3.0014,3.0024,3.001,3.0069,3.0074,3.0079,3.0099,3.0106,3.0018,3.0018,3.0018,3.0018,0,2.9744,2.9774,2.9798,2.9832,2.9852,2.9885,2.9896,2.9916,2.9917,2.9928,2.9969,2.9989,3.002,3.0032,3.0033,3.0082,3.0076,3.0067,3.0049,3.0088,3.0107,3.0114,3.002,3.002,3.0019,3.0019,0,0,2.9799,2.9835,2.9844,2.9859,2.9888,2.9912,2.9945,2.9976,2.9993,3.0016,3.0045,3.0086,3.0078,3.0096,3.0099,3.0122,3.0165,3.0111,3.0111,3.0122,3.0221,3.0229,3.0238,3.0162,3.0164,3.0165,3.022,0,2.9849,2.9908,2.9915,2.9968,2.9997,2.9994,3.0023,3.0044,3.0054,3.0081,3.0092,3.0122,3.0108,3.0119,3.0141,3.0155,3.0185,3.0151,3.019,3.0192,3.0186,3.0247,3.0256,3.0307,3.0227,3.0228,3.0229,0,2.9915,2.9941,2.9997,3.0022,3.0035,3.0061,3.009,3.0115,3.0139,3.0145,3.0165,3.0165,3.02,3.0179,3.0228,3.0204,3.0221,3.023,3.0232,3.0238,3.0214,3.0257,3.0324,3.0332,3.024,3.0239,3.0239,0,2.9953,3.0001,3.0041,3.0054,3.0084,3.0103,3.0116,3.0138,3.0156,3.0182,3.0194,3.0223,3.024,3.0262,3.0271,3.0255,3.032,3.0299,3.0327,3.0327,3.0343,3.0342,3.0415,3.035,3.035,3.0349,3.0349,0,3.0009,3.0044,3.0059,3.0084,3.0123,3.0129,3.0168,3.018,3.02,3.0228,3.0226,3.0252,3.0261,3.0289,3.0296,3.0336,3.0343,3.0349,3.0351,3.0351,3.035,3.0363,3.0361,3.0351,3.0351,3.0351,3.035,0,3.0059,3.0069,3.0113,3.0138,3.0145,3.0173,3.0194,3.0219,3.0228,3.0263,3.0272,3.0287,3.032,3.033,3.0369,3.0374,3.0422,3.0419,3.0414,3.0415,3.0443,3.0441,3.0529,3.0542,3.0466,3.0466,3.0467,0,3.0095,3.0122,3.015,3.0168,3.0182,3.0212,3.0231,3.0238,3.0258,3.0287,3.0308,3.034,3.0367,3.0419,3.0434,3.0464,3.0463,3.0492,3.0468,3.0467,3.0466,3.0466,3.0469,3.0497,3.0498,3.0499,3.0499,0,3.0159,3.0163,3.0191,3.0221,3.0244,3.0267,3.029,3.0305,3.0316,3.0338,3.0371,3.0392,3.0432,3.0464,3.0495,3.0509,3.0507,3.0506,3.0515,3.0516,3.0513,3.0517,3.0429,3.0505,3.0504,3.0504,3.0504,3.0503,3.0205,3.0229,3.0253,3.0284,3.0302,3.0323,3.0348,3.036,3.0388,3.0422,3.0424,3.046,3.0484,3.0525,3.054,3.0569,3.0561,3.0572,3.0576,3.0579,3.0583,3.0506,3.0574,3.0574,3.0574,3.0574,3.0574,0,3.0271,3.0286,3.0314,3.0347,3.0371,3.0365,3.039,3.0412,3.0444,3.0465,3.0491,3.053,3.0562,3.0579,3.061,3.063,3.063,3.0639,3.0638,3.0642,3.0587,3.0578,3.0638,3.0638,3.0638,3.0638,3.0638,3.0638,3.0309,3.035,3.0357,3.0408,3.0422,3.0458,3.0473,3.0493,3.051,3.0554,3.058,3.0591,3.0611,3.0644,3.0673,3.0677,3.069,3.07,3.0703,3.0652,3.0646,3.0639,3.0631,3.0702,3.0702,3.0756,3.0757,3.0757]}]]